Weather History for Pellston, MI

Change the Weather History Date:

Thursday, January 2, 2014

  Actual Average Record
Temperature  
Mean Temperature -8 °F -  
Max Temperature 7 °F 28 °F 46 °F (1998)
Min Temperature -22 °F 13 °F -22 °F (2014)
Degree Days  
Heating Degree Days 72    
Moisture  
Dew Point -8 °F    
Average Humidity 77    
Maximum Humidity 91    
Minimum Humidity 66    
Precipitation  
Precipitation 0.00 in - - ()
Sea Level Pressure  
Sea Level Pressure 30.36 in    
Wind  
Wind Speed 3 mph (NE)    
Max Wind Speed 10 mph    
Max Gust Speed -    
Visibility 8 miles    
Events Snow    
Averages and records for this station are not official NWS values.
T = Trace of Precipitation, MM = Missing Value Source: NWS Daily Summary

Daily Weather History Graph

Daily Weather History Graph

Search for Another Location

Airport:

Trip Planner

Search our weather history database for the weather conditions in past years. The results will help you decide how hot, cold, wet, or windy it might be!

Date:

Astronomy

Jan. 02, 2014 Rise Set
Actual Time 8:19 AM EST 5:07 PM EST
Civil Twilight 7:45 AM EST 5:41 PM EST
Nautical Twilight 7:08 AM EST 6:18 PM EST
Astronomical Twilight 6:32 AM EST 6:54 PM EST
Moon 8:54 AM EST (1/2) 7:10 PM EST (1/2)
Length of Visible Light 9h 55m
Length of Day
8h 47m
New Moon, 2% of the Moon is Illuminated
Jan 2
New Moon
Jan 7
First Quarter
Jan 15
Full
Jan 24
Last Quarter
Jan 30
New

Hourly Weather History & Observations

Time (EST) Temp. Windchill Dew Point Humidity Pressure Visibility Wind Dir Wind Speed Gust Speed Precip Events Conditions
12:54 AM -4.0 °F - -8.0 °F 83% 30.43 in 10.0 mi Calm Calm - N/A   Overcast
1:54 AM -2.0 °F - -7.1 °F 79% 30.43 in 10.0 mi Calm Calm - N/A   Overcast
2:54 AM -2.0 °F - -6.0 °F 83% 30.42 in 10.0 mi Calm Calm - N/A   Overcast
3:54 AM -4.0 °F - -8.0 °F 83% 30.41 in 10.0 mi Calm Calm - N/A   Overcast
4:54 AM -4.0 °F - -8.0 °F 83% 30.39 in 10.0 mi Calm Calm - N/A   Overcast
5:54 AM -7.1 °F - -11.0 °F 83% 30.38 in 10.0 mi Calm Calm - N/A   Overcast
6:54 AM -9.0 °F -18.2 °F -11.9 °F 87% 30.39 in 10.0 mi NW 3.5 mph - N/A   Overcast
7:54 AM -6.0 °F - -11.0 °F 79% 30.38 in 10.0 mi Calm Calm - N/A   Overcast
8:54 AM -5.1 °F - -9.9 °F 80% 30.38 in 10.0 mi Calm Calm - N/A   Overcast
9:54 AM -2.0 °F - -5.1 °F 87% 30.39 in 7.0 mi Calm Calm - N/A   Overcast
10:54 AM 6.1 °F -4.3 °F -0.0 °F 76% 30.39 in 10.0 mi NE 5.8 mph - N/A   Scattered Clouds
11:30 AM 7.0 °F -3.3 °F 1.0 °F 77% 30.32 in 7.0 mi ENE 5.8 mph - N/A   Mostly Cloudy
11:45 AM 7.0 °F -6.6 °F -0.0 °F 73% 30.31 in 1.5 mi NNE 9.2 mph - 0.00 in Snow Light Snow
11:54 AM 6.1 °F -6.8 °F -0.0 °F 76% 30.37 in 1.0 mi NE 8.1 mph - 0.00 in Snow Light Snow
12:10 PM 6.1 °F -7.8 °F -0.0 °F 76% 30.31 in 0.5 mi NE 9.2 mph - 0.00 in Snow Snow
12:27 PM 6.1 °F -6.8 °F -0.0 °F 76% 30.30 in 1.8 mi NE 8.1 mph - 0.00 in   Haze
12:30 PM 6.1 °F -7.8 °F -0.9 °F 73% 30.30 in 3.0 mi ENE 9.2 mph - 0.00 in   Haze
12:38 PM 6.1 °F -8.7 °F -0.9 °F 73% 30.30 in 5.0 mi ENE 10.4 mph - 0.00 in   Haze
12:54 PM 6.1 °F -8.7 °F -0.9 °F 73% 30.36 in 6.0 mi NE 10.4 mph - 0.00 in   Haze
1:09 PM 6.1 °F -6.8 °F -0.9 °F 73% 30.29 in 4.0 mi ENE 8.1 mph - N/A   Haze
1:42 PM 7.0 °F -6.6 °F -0.9 °F 70% 30.29 in 10.0 mi NE 9.2 mph - N/A   Scattered Clouds
1:54 PM 7.0 °F -6.6 °F -0.9 °F 70% 30.35 in 10.0 mi ENE 9.2 mph - N/A   Mostly Cloudy
2:14 PM 6.1 °F -7.8 °F -2.0 °F 69% 30.28 in 10.0 mi ENE 9.2 mph - N/A   Overcast
2:54 PM 3.0 °F -11.5 °F -4.0 °F 73% 30.36 in 6.0 mi NNE 9.2 mph - N/A   Haze
3:04 PM 3.9 °F -11.3 °F -4.0 °F 70% 30.30 in 10.0 mi NE 10.4 mph - N/A   Scattered Clouds
3:54 PM 1.9 °F -11.8 °F -7.1 °F 66% 30.37 in 10.0 mi NNE 8.1 mph - N/A   Clear
4:54 PM -2.0 °F -15.4 °F -9.9 °F 69% 30.38 in 10.0 mi North 6.9 mph - N/A   Clear
5:54 PM -11.0 °F - -14.1 °F 86% 30.40 in 10.0 mi Calm Calm - N/A   Clear
6:54 PM -13.0 °F - -16.1 °F 86% 30.40 in 10.0 mi Calm Calm - N/A   Clear
7:54 PM -18.9 °F - -20.9 °F 91% 30.41 in 10.0 mi Calm Calm - N/A   Clear
8:54 PM -22.0 °F - -25.1 °F 86% 30.40 in 10.0 mi Calm Calm - N/A   Clear
9:54 PM -20.0 °F - -26.0 °F 74% 30.40 in 10.0 mi Calm Calm - N/A   Partly Cloudy
10:54 PM -20.9 °F - -26.0 °F 77% 30.40 in 10.0 mi Calm Calm - N/A   Mostly Cloudy
11:54 PM -20.0 °F - -26.0 °F 74% 30.39 in 10.0 mi Calm Calm - N/A   Overcast